This demonstration page uses our WeatherBlox Daily Observations layout. Learn more.

Left ArrowRight Arrow

38.83388, -104.82136

Hourly Observations for January 21, 2017

Temp ( °F °C ) Dew Point ( °F °C ) Humidity (%) Winds ( mph kmh ) Pressure ( in mb ) Visibility ( mi km ) Precip ( " mm )
12:08 am 00:08 Mostly Cloudy with Light Snow Showers 27 -3 23 -5 86 86 S 13 20 29.47 998 1 1 0.00 0.00
12:24 am 00:24 Mostly Cloudy 30 -1 16 -9 55 55 S 8 13 29.41 996 10 16 0.00 0.00
12:58 am 00:58 Mostly Cloudy 30 -1 16 -8.8 56 56 Calm 29.11 986 10 16 0.00 0.00
1:58 am 01:58 Mostly Cloudy 29 -1.9 18 -7.6 65 65 Calm 29.13 987 10 16 0.00 0.00
2:58 am 02:58 Mostly Cloudy 29 -1.9 17 -8.2 62 62 Calm 29.12 986 10 16 0.00 0.00
3:58 am 03:58 Clear 28 -2.4 19 -7.2 70 70 N 5 7 29.10 985 10 16 0.00 0.00
4:58 am 04:58 Mostly Clear 26 -3.2 18 -8 70 70 Calm 29.10 986 10 16 0.00 0.00
5:53 am 05:53 Mostly Cloudy with Mist and Fog 25 -4 23 -5 93 93 NW 3 6 29.44 997 4 6 0.00 0.00
5:58 am 05:58 Mostly Cloudy with Mist and Fog 24 -4.3 23 -4.9 96 96 Calm 29.10 985 5 8 0.00 0.00
6:58 am 06:58 Mostly Cloudy 26 -3.5 20 -6.6 79 79 N 7 11 29.08 985 10 16 0.00 0.00
7:58 am 07:58 Mostly Sunny 25 -3.9 22 -5.7 87 87 NNW 9 15 29.10 986 10 16 0.00 0.00
8:58 am 08:58 Mostly Cloudy 27 -3 18 -7.6 71 71 Calm 29.10 986 10 16 0.00 0.00
9:58 am 09:58 Mostly Cloudy 31 -0.6 22 -5.4 70 70 N 6 9 29.09 985 10 16 0.00 0.00
10:58 am 10:58 Mostly Cloudy 35 1.5 20 -6.7 55 55 NNE 6 9 29.06 984 10 16 0.00 0.00
11:58 am 11:58 Mostly Cloudy 35 1.6 19 -7.4 52 52 N 6 9 29.02 983 10 16 0.00 0.00
12:58 pm 12:58 Mostly Cloudy 35 1.7 19 -7.1 52 52 SSE 3 6 29.01 982 10 16 0.00 0.00
1:58 pm 13:58 Mostly Cloudy 36 2.2 23 -4.9 60 60 SSE 7 11 29.05 984 10 16 0.00 0.00
2:58 pm 14:58 Mostly Cloudy 34 1.3 23 -5.1 63 63 SE 5 7 29.07 985 10 16 0.00 0.00
3:58 pm 15:58 Mostly Sunny 33 0.5 23 -5.1 66 66 Calm 29.12 986 10 16 0.00 0.00
4:58 pm 16:58 Mostly Cloudy 33 0.5 23 -4.8 68 68 NNW 3 6 29.17 988 10 16 0.00 0.00
5:43 pm 17:43 Mostly Cloudy 32 0 23 -5 69 69 NNW 7 11 29.44 997 10 16 0.00 0.00
5:58 pm 17:58 Mostly Cloudy 33 0.3 20 -6.5 61 61 NNW 12 19 29.23 990 10 16 0.00 0.00
6:23 pm 18:23 Mostly Cloudy 32 0 19 -7 60 60 NNW 10 17 29.47 998 10 16 0.00 0.00
6:58 pm 18:58 Mostly Cloudy 32 -0.1 20 -6.7 61 61 N 12 19 29.27 991 10 16 0.00 0.00
7:58 pm 19:58 Cloudy 31 -0.4 20 -6.5 64 64 Calm 29.31 993 10 16 0.00 0.00
8:58 pm 20:58 Partly Cloudy 31 -0.5 20 -6.8 63 63 S 3 6 29.33 993 10 16 0.00 0.00
9:58 pm 21:58 Mostly Cloudy 31 -0.8 20 -6.9 64 64 Calm 29.37 995 10 16 0.00 0.00
10:58 pm 22:58 Mostly Cloudy 31 -0.5 18 -8 57 57 Calm 29.38 995 10 16 0.00 0.00
11:58 pm 23:58 Mostly Cloudy 32 -0.2 15 -9.6 50 50 N 8 13 29.40 996 10 16 0.00 0.00

Powered by AerisWeather